CW7618 Vienna VA US current weather conditions

sailwx.info

Wind from 068

Air temperature 15.0° C
Dewpoint 13.7° C

Last reported at 2019-Aug-26 08:58 UTC.
Time now 2019-Aug-26 09:18 UTC

Location: N 38°55' W 077°16'.
View on Google Maps.

See reports from other nearby stations

  
Tides and Currents Weather Stations Pressure Air Temp Water Temp Dewpoint Dewpoint Depression Visibility Wind Speed Wind Dir Waves Ship Positions
date/time (UTC)wind fromknots sea level pressurealtimeterstation pressurevisibilityair tempwater tempwave heightnotes
2019-Aug-26 08:58 068 15.0
2019-Aug-26 08:48 068 15.0
2019-Aug-26 08:38 068 15.0
2019-Aug-26 08:28 068 15.0
2019-Aug-26 08:18 068 15.0
2019-Aug-26 08:08 068 15.6
2019-Aug-26 07:58 068 15.6
2019-Aug-26 07:48 068 15.6
2019-Aug-26 07:37 068 16.1
2019-Aug-26 07:27 068 16.1
2019-Aug-26 07:17 068 16.1
2019-Aug-26 07:07 068 16.7
2019-Aug-26 06:57 068 16.7
2019-Aug-26 06:46 068 16.7
2019-Aug-26 06:36 068 17.2
2019-Aug-26 06:26 068 17.2
2019-Aug-26 06:16 068 17.8
2019-Aug-26 06:06 068 17.8
2019-Aug-26 05:56 068 18.3
2019-Aug-26 05:45 068 18.3
2019-Aug-26 05:35 068 18.3
2019-Aug-26 05:25 068 18.3
2019-Aug-26 05:14 068 18.3
2019-Aug-26 05:04 068 18.9
2019-Aug-26 04:54 225 18.9
2019-Aug-26 04:44 113 18.9
2019-Aug-26 04:33 090 18.9
2019-Aug-26 04:23 090 18.9
2019-Aug-26 04:13 090 18.9
2019-Aug-26 04:03 090 19.4
2019-Aug-26 03:53 090 19.4
2019-Aug-26 03:43 090 19.4
2019-Aug-26 03:32 090 19.4
2019-Aug-26 03:21 090 19.4
2019-Aug-26 03:11 090 19.4
2019-Aug-26 03:00 090 20.0
2019-Aug-26 02:50 090 20.0
2019-Aug-26 02:39 090 20.0
2019-Aug-26 02:29 090 20.6
2019-Aug-26 02:18 090 20.6
2019-Aug-26 02:08 090 20.6
2019-Aug-26 01:58 090 21.1
2019-Aug-26 01:47 090 21.1
2019-Aug-26 01:37 090 21.1
2019-Aug-26 01:26 090 21.1
2019-Aug-26 01:15 225 21.1
2019-Aug-26 01:05 090 21.1
2019-Aug-26 00:54 090 21.7
2019-Aug-26 00:44 090 21.7
2019-Aug-26 00:34 090 21.7
2019-Aug-26 00:23 045 22.2
2019-Aug-26 00:12 045 22.2
2019-Aug-26 00:02 068 22.2
2019-Aug-25 23:51 045 22.2
2019-Aug-25 23:41 068 22.2
2019-Aug-25 23:30 090 22.2
2019-Aug-25 23:20 090 22.2
2019-Aug-25 23:09 090 22.8
2019-Aug-25 22:59 023 22.8
2019-Aug-25 22:48 045 22.8
2019-Aug-25 22:38 135 23.3
2019-Aug-25 22:28 135 23.3
2019-Aug-25 22:18 090 22.8
2019-Aug-25 22:08 068 23.3
2019-Aug-25 21:58 068 23.3
2019-Aug-25 21:47 068 23.3
2019-Aug-25 21:37 068 23.3
2019-Aug-25 21:27 068 23.3
2019-Aug-25 21:17 068 23.3
2019-Aug-25 21:07 068 23.3
2019-Aug-25 20:57 068 23.3
2019-Aug-25 20:47 068 23.9
2019-Aug-25 20:36 068 24.4
2019-Aug-25 20:26 068 24.4
2019-Aug-25 20:16 068 24.4
2019-Aug-25 20:06 068 24.4
2019-Aug-25 19:56 045 0 gusting 3 24.4
2019-Aug-25 19:46 068 24.4
2019-Aug-25 19:36 023 24.4
2019-Aug-25 19:25 068 25.0
2019-Aug-25 19:15 158 25.0
2019-Aug-25 19:05 068 0 gusting 2 24.4
2019-Aug-25 18:55 113 0 gusting 3 24.4
2019-Aug-25 18:45 068 24.4
2019-Aug-25 18:35 023 25.0
2019-Aug-25 18:25 068 25.6
2019-Aug-25 18:14 090 24.4
2019-Aug-25 18:03 023 24.4
2019-Aug-25 17:53 045 24.4
2019-Aug-25 17:43 068 25.6
2019-Aug-25 17:33 045 25.6
2019-Aug-25 17:22 090 25.6
2019-Aug-25 17:12 090 24.4
2019-Aug-25 17:02 068 23.9
2019-Aug-25 16:52 068 23.3
2019-Aug-25 16:42 045 0 gusting 4 23.9
2019-Aug-25 16:32 023 24.4
2019-Aug-25 16:21 068 24.4
2019-Aug-25 16:11 045 24.4
2019-Aug-25 16:01 068 0 gusting 2 25.0
2019-Aug-25 15:51 24.4
2019-Aug-25 15:41 068 0 gusting 4 24.4
2019-Aug-25 15:31 068 0 gusting 2 24.4
2019-Aug-25 15:21 090 25.0
2019-Aug-25 15:10 113 25.0
2019-Aug-25 15:00 135 23.9
2019-Aug-25 14:50 068 0 gusting 3 23.3
2019-Aug-25 14:40 068 0 gusting 4 23.3
2019-Aug-25 14:30 068 0 gusting 4 23.3
2019-Aug-25 14:20 113 23.3
2019-Aug-25 14:10 068 23.3
2019-Aug-25 13:59 248 22.8
2019-Aug-25 13:49 045 21.7
2019-Aug-25 13:39 045 21.1
2019-Aug-25 13:28 225 20.0
2019-Aug-25 13:18 113 19.4
2019-Aug-25 13:08 113 18.9
2019-Aug-25 12:57 068 18.3
2019-Aug-25 12:47 068 17.8
2019-Aug-25 12:37 068 17.8
2019-Aug-25 12:26 068 17.2
2019-Aug-25 12:16 068 17.2
2019-Aug-25 12:06 068 16.7
2019-Aug-25 11:55 068 16.7
2019-Aug-25 11:45 068 16.7
2019-Aug-25 11:35 068 16.1
2019-Aug-25 11:24 068 16.1
2019-Aug-25 11:14 068 15.6
2019-Aug-25 11:04 068 15.6
2019-Aug-25 10:53 068 15.6
2019-Aug-25 10:43 068 15.6
2019-Aug-25 10:33 068 15.6
2019-Aug-25 10:23 068 15.6
2019-Aug-25 10:12 068 15.6
2019-Aug-25 10:02 068 15.6
2019-Aug-25 09:51 068 15.6
2019-Aug-25 09:41 068 15.6
2019-Aug-25 09:31 068 15.6
2019-Aug-25 09:20 068 15.6
2019-Aug-25 09:10 068 15.6
2019-Aug-25 09:00 068 15.6
2019-Aug-25 08:50 068 15.6
2019-Aug-25 08:39 068 15.6
2019-Aug-25 08:29 068 15.6
2019-Aug-25 08:19 068 15.6
2019-Aug-25 08:08 068 15.6
2019-Aug-25 07:58 068 15.6
2019-Aug-25 07:48 068 15.6
2019-Aug-25 07:38 068 15.6
2019-Aug-25 07:27 068 15.6
2019-Aug-25 07:17 068 15.6
2019-Aug-25 07:07 068 15.6
2019-Aug-25 06:57 068 16.1
2019-Aug-25 06:46 068 16.1
2019-Aug-25 06:36 068 16.1
2019-Aug-25 06:26 068 16.1
2019-Aug-25 06:16 068 16.1
2019-Aug-25 06:06 068 16.7
2019-Aug-25 05:56 068 16.7
2019-Aug-25 05:45 068 16.7
2019-Aug-25 05:35 068 16.7
2019-Aug-25 05:25 068 16.7
2019-Aug-25 05:14 068 16.7
2019-Aug-25 05:04 068 17.2
2019-Aug-25 04:54 068 17.2
2019-Aug-25 04:44 068 17.2
2019-Aug-25 04:34 068 17.8
2019-Aug-25 04:23 068 17.8
2019-Aug-25 04:13 068 17.8
2019-Aug-25 04:03 068 18.3
2019-Aug-25 03:53 068 18.3
2019-Aug-25 03:43 068 18.3
2019-Aug-25 03:32 068 17.8
2019-Aug-25 03:22 068 17.8
2019-Aug-25 03:12 068 17.8
2019-Aug-25 03:02 068 18.3
2019-Aug-25 02:52 068 18.3
2019-Aug-25 02:41 068 18.3
2019-Aug-25 02:31 068 18.3
2019-Aug-25 02:21 068 18.3
2019-Aug-25 02:11 068 18.3
2019-Aug-25 02:01 068 18.9
2019-Aug-25 01:51 068 18.9
2019-Aug-25 01:41 068 18.9
2019-Aug-25 01:30 068 18.9
2019-Aug-25 01:19 068 19.4
2019-Aug-25 01:09 068 19.4
2019-Aug-25 00:59 068 19.4
2019-Aug-25 00:48 068 20.0
2019-Aug-25 00:38 068 20.0
2019-Aug-25 00:27 068 20.6
2019-Aug-25 00:17 068 20.6
2019-Aug-25 00:07 068 20.6
2019-Aug-24 23:56 068 21.1
2019-Aug-24 23:46 068 21.7
2019-Aug-24 23:36 068 21.7
2019-Aug-24 23:26 068 21.7
2019-Aug-24 23:15 068 21.7
2019-Aug-24 23:05 068 22.2
2019-Aug-24 22:54 068 22.2
2019-Aug-24 22:44 068 22.8
2019-Aug-24 22:34 068 22.8
2019-Aug-24 22:24 068 22.8
2019-Aug-24 22:14 068 23.3
2019-Aug-24 22:03 068 23.3
2019-Aug-24 21:53 23.3
2019-Aug-24 21:43 023 23.3
2019-Aug-24 21:32 023 23.3
2019-Aug-24 21:22 023 23.3
2019-Aug-24 21:12 023 23.3
2019-Aug-24 21:02 023 22.8
2019-Aug-24 20:52 023 22.8
2019-Aug-24 20:42 023 23.3
2019-Aug-24 20:32 023 23.9
2019-Aug-24 20:22 023 24.4
2019-Aug-24 20:11 023 24.4
2019-Aug-24 20:01 315 24.4
2019-Aug-24 19:51 315 25.0
2019-Aug-24 19:41 338 25.0
2019-Aug-24 19:31 338 24.4
2019-Aug-24 19:20 338 24.4
2019-Aug-24 19:10 338 25.0
2019-Aug-24 19:00 338 25.0
2019-Aug-24 18:50 338 24.4
2019-Aug-24 18:39 338 24.4
2019-Aug-24 18:29 338 25.0
2019-Aug-24 18:19 338 24.4
2019-Aug-24 18:09 338 25.0
2019-Aug-24 17:58 338 25.0
2019-Aug-24 17:48 25.0
2019-Aug-24 17:38 25.0
2019-Aug-24 17:28 24.4
2019-Aug-24 17:18 338 25.0
2019-Aug-24 17:08 068 25.0
2019-Aug-24 16:57 068 25.0
2019-Aug-24 16:47 023 25.0
2019-Aug-24 16:36 068 25.0
2019-Aug-24 16:26 068 25.6
2019-Aug-24 16:16 135 25.0
2019-Aug-24 16:06 338 25.6
2019-Aug-24 15:55 338 25.0
2019-Aug-24 15:45 338 25.6
2019-Aug-24 15:35 338 25.0
2019-Aug-24 15:24 338 24.4
2019-Aug-24 15:14 338 24.4
2019-Aug-24 15:04 338 24.4
2019-Aug-24 14:54 338 23.9
2019-Aug-24 14:44 338 23.3
2019-Aug-24 14:33 338 23.3
2019-Aug-24 14:23 338 23.3
2019-Aug-24 14:13 338 22.8
2019-Aug-24 14:03 338 21.7
2019-Aug-24 13:52 338 21.1
2019-Aug-24 13:42 338 20.0
2019-Aug-24 13:32 338 18.3
2019-Aug-24 13:21 338 17.8
2019-Aug-24 13:11 338 16.7
2019-Aug-24 13:01 338 16.1
2019-Aug-24 12:51 338 16.1
2019-Aug-24 12:41 338 15.6
2019-Aug-24 12:31 338 15.6
2019-Aug-24 12:20 338 15.6
2019-Aug-24 12:10 338 15.0
2019-Aug-24 12:00 338 15.0
2019-Aug-24 11:49 338 15.0
2019-Aug-24 11:39 338 14.4
2019-Aug-24 11:29 14.4